Regional Weather Roundup
Issued by NWS

Home | Current Version | Previous Version | Graphics & Text | Print | Product List | Glossary On
Versions: 1 2 3 4 5 6 7 8 9 10 11 12 13 14 15 16 17 18 19 20 21 22 23 24 25 26 27 28 29 30 31 32 33 34 35 36 37 38 39 40 41 42 43 44 45 46 47 48 49 50
000
ASUS43 KBIS 011310
RWRND

NORTH DAKOTA REGIONAL WEATHER ROUNDUP
NATIONAL WEATHER SERVICE BISMARCK ND
800 AM CDT SAT AUG 01 2015

NOTE: "FAIR" INDICATES FEW OR NO CLOUDS BELOW 12,000 FEET WITH NO
SIGNIFICANT WEATHER AND/OR OBSTRUCTIONS TO VISIBILITY.


NDZ001>003-009>011-017-011400-
NORTHWEST NORTH DAKOTA

CITY           SKY/WX    TMP DP  RH WIND       PRES   REMARKS
WILLISTON      SUNNY     67  54  63 CALM      29.94S
MINOT          MOSUNNY   60  54  80 S5        29.93F
MINOT AFB      SUNNY     62  56  83 S5        29.92F
$$

NDZ018>021-031>035-040>046-011400-
SOUTHWEST NORTH DAKOTA

CITY           SKY/WX    TMP DP  RH WIND       PRES   REMARKS
BISMARCK       SUNNY     61  56  83 E9        29.92F
DICKINSON      SUNNY     57  50  77 W8        29.92S
GARRISON         N/A     63  58  83 E6        29.92F
HETTINGER ARPT SUNNY     66  53  63 W3        29.96S
$$

NDZ004>008-012>016-024-026-027-054-011400-
NORTHEAST NORTH DAKOTA

CITY           SKY/WX    TMP DP  RH WIND       PRES   REMARKS
GRAND FORKS    SUNNY     63  55  75 CALM      29.93F
GRND FRKS AFB  SUNNY     65  57  74 W3        29.94F
DEVILS LAKE    MOSUNNY   64  55  72 CALM      29.95F
$$

NDZ022-023-025-028>030-036>039-047>053-011400-
SOUTHEAST NORTH DAKOTA

CITY           SKY/WX    TMP DP  RH WIND       PRES   REMARKS
FARGO          MOSUNNY   64  57  78 S5        29.96S
JAMESTOWN      MOSUNNY   64  60  87 CALM      29.96F
$$



USA.gov is the U.S. government's official web portal to all federal, state and local government web resources and services.